This demonstration page uses our WeatherBlox Daily Observations layout. Learn more.

38.89511, -77.03637

Hourly Observations for January 29, 2018

Temp ( °F °C ) Dew Point ( °F °C ) Humidity (%) Winds ( mph kmh ) Pressure ( in mb ) Visibility ( mi km ) Precip ( " mm )
12:52 am 00:52 Cloudy 48 8.9 45 7.2 89 89 NNE 10 17 30.2 1023 10 16.0934 0 0.0254
1:52 am 01:52 Cloudy 47 8.3 43 6.1 86 86 NE 10 17 30.19 1022 10 16.0934 0 0
2:38 am 02:38 Cloudy 47 8.3 42 5.6 83 83 NNE 9 15 30.18 1022 10 16.0934 0 0
2:52 am 02:52 Cloudy 47 8.3 42 5.6 83 83 NNE 8 13 30.18 1022 10 16.0934 0 0
3:52 am 03:52 Cloudy 47 8.3 40 4.4 77 77 NNE 10 17 30.16 1021 10 16.0934 0 0
4:52 am 04:52 Cloudy 46 7.8 38 3.3 73 73 NNE 8 13 30.15 1021 10 16.0934 0 0
5:52 am 05:52 Cloudy 45 7.2 36 2.2 71 71 NNE 12 19 30.15 1021 10 16.0934 0 0
6:52 am 06:52 Cloudy 45 7.2 36 2.2 71 71 NNE 10 17 30.15 1021 10 16.0934 0 0
7:00 am 07:00 Cloudy 45 7.2 37 2.8 74 74 NE 8 13 30.15 1021 10 16.0934 0 0
7:26 am 07:26 Cloudy 45 7.2 37 2.8 74 74 NE 10 17 30.15 1021 10 16.0934 0 0
7:34 am 07:34 Cloudy 45 7.2 37 2.8 74 74 NNE 10 17 30.15 1021 10 16.0934 0 0
7:42 am 07:42 Cloudy 45 7.2 38 3.3 77 77 NE 10 17 30.15 1021 10 16.0934 0 0
7:52 am 07:52 Cloudy 45 7.2 38 3.3 77 77 NNE 9 15 30.15 1021 10 16.0934 0 0
8:52 am 08:52 Cloudy 45 7.2 39 3.9 80 80 NE 15 24 30.15 1021 10 16.0934 0 0
9:52 am 09:52 Cloudy 45 7.2 37 2.8 74 74 ENE 17 28 30.15 1021 10 16.0934 0 0
10:52 am 10:52 Cloudy 45 7.2 35 1.7 68 68 ENE 16 26 30.14 1021 10 16.0934 0 0
11:52 am 11:52 Cloudy 46 7.8 33 0.6 61 61 NE 17 28 30.12 1020 10 16.0934 0 0
12:52 pm 12:52 Cloudy 45 7.2 32 0 61 61 NE 13 20 30.09 1019 10 16.0934 0 0
1:52 pm 13:52 Cloudy 46 7.8 30 -1.1 54 54 NE 13 20 30.06 1018 10 16.0934 0 0
2:52 pm 14:52 Cloudy 46 7.8 29 -1.7 51 51 NNE 18 30 30.05 1018 10 16.0934 0 0
3:52 pm 15:52 Cloudy 46 7.8 29 -1.7 51 51 NNE 9 15 30.05 1018 10 16.0934 0 0
4:52 pm 16:52 Cloudy 45 7.2 29 -1.7 54 54 NNE 7 11 30.05 1018 10 16.0934 0 0
5:52 pm 17:52 Cloudy 45 7.2 28 -2.2 52 52 NNE 12 19 30.04 1017 10 16.0934 0 0
6:52 pm 18:52 Cloudy 45 7.2 29 -1.7 54 54 NNE 9 15 30.05 1018 10 16.0934 0 0
7:52 pm 19:52 Mostly Cloudy 44 6.7 30 -1.1 58 58 NE 7 11 30.05 1018 10 16.0934 0 0
8:52 pm 20:52 Cloudy 44 6.7 30 -1.1 58 58 N 8 13 30.05 1018 10 16.0934 0 0
9:52 pm 21:52 Mostly Cloudy 43 6.1 29 -1.7 58 58 N 8 13 30.04 1017 10 16.0934 0 0
10:52 pm 22:52 Cloudy 42 5.6 31 -0.6 65 65 NNE 6 9 30.03 1017 10 16.0934 0 0
11:52 pm 23:52 Cloudy 41 5 30 -1.1 65 65 N 5 7 30.01 1016 10 16.0934 0 0

Powered by AerisWeather